Regional Weather Roundup
Issued by NWS

Home | Current Version | Previous Version | Text Only | Print | Product List | Glossary On
Versions: 1 2 3 4 5 6 7 8 9 10 11 12 13 14 15 16 17 18 19 20 21 22 23 24 25 26 27 28 29 30 31 32 33 34 35 36 37 38 39 40 41 42 43 44 45 46 47 48 49 50
785
ASUS44 KJAN 231503
RWRMS

MISSISSIPPI HOURLY WEATHER ROUNDUP
NATIONAL WEATHER SERVICE JACKSON MS
1000 AM CDT TUE SEP 23 2014

NOTE: "FAIR: INDICATES FEW OR NO CLOUDS BELOW 12,000 FEET WITH NO
SIGNIFICANT WEATHER AND/OR OBSTRUCTIONS TO VISIBILITY.

MSZ001>002-007>008-010>013-018>021-025>028-034>036-231600-
NORTHWEST MISSISSIPPI

CITY           SKY/WX    TMP DP  RH WIND       PRES   REMARKS
CLARKSDALE     FAIR      68  50  52 NE12      30.24S
CLEVELAND      FAIR      67  52  59 NE7       30.21S
GREENWOOD      SUNNY     68  52  56 E6        30.20S
GREENVILLE     SUNNY     70  49  47 E9        30.20S
GRENADA        FAIR      64  52  63 E6        30.22S
OLIVE BRANCH   SUNNY     63  50  63 E8        30.26R
OXFORD         FAIR      63  50  63 E7        30.24S
TUNICA         SUNNY     66  50  55 NE10      30.25S
$$

MSZ003>006-009-014>017-022>024-029>033-037>039-231600-
NORTHEAST MISSISSIPPI

CITY           SKY/WX    TMP DP  RH WIND       PRES   REMARKS
COLUMBUS AFB   SUNNY     66  52  60 NE6       30.20R
CORINTH        FAIR      66  50  55 E7        30.24R
GOLDN TRIANGLE SUNNY     64  50  59 NE7       30.20S
STARKVILLE     FAIR      64  52  63 NE8       30.20S
TUPELO         SUNNY     64  50  60 NE8       30.22S
$$

MSZ040-058-231600-
CENTRAL MISSISSIPPI

CITY           SKY/WX    TMP DP  RH WIND       PRES   REMARKS
JACKSON INTL   SUNNY     70  52  52 NE5       30.17S
JACKSON HAWKNS SUNNY     70  52  52 NE6       30.18R
MERIDIAN KEY   SUNNY     68  53  58 E6        30.17R
MERIDIAN NAS   MOSUNNY   68  53  58 E5        30.18R
RAYMOND        FAIR      68  63  83 NE5       30.18R
VICKSBURG      SUNNY     70  54  56 NE5       30.18S
$$

MSZ059>079-231600-
SOUTH MISSISSIPPI

CITY           SKY/WX    TMP DP  RH WIND       PRES   REMARKS
BROOKHAVEN     FAIR      70  54  56 E3        30.17S
COLUMBIA       FAIR      70  55  60 E8        30.14R
HATTIESBURG    SUNNY     71  54  54 VRB3      30.15S
MCCOMB         SUNNY     70  53  54 E8        30.15R
NATCHEZ        SUNNY     68  54  60 E5        30.17R
PINE BELT      SUNNY    N/A N/A N/A NE7       30.15F
$$

MSZ080>082-231600-
COASTAL MISSISSIPPI

CITY           SKY/WX    TMP DP  RH WIND       PRES   REMARKS
BAY ST LOUIS   SUNNY     72  52  49 NE7       30.12
BILOXI         SUNNY     74  57  55 NE8       30.11S
PASCAGOULA     SUNNY     73  57  57 NE8       30.11R
GULFPORT       SUNNY     74  55  51 NE8       30.10S
$$



USA.gov is the U.S. government's official web portal to all federal, state and local government web resources and services.